Location: Needingworth
(52.3167°N, 0.0167°W)
Time: 10:55:46
(UTC+00:00)

Daily predictions for brighter satellites

Satellite Brightness Start Highest point End
(mag) Time Altitude Azimuth Time Altitude Azimuth Time Altitude Azimuth
Cosmos 1536 Rocket 4.2 19:36:23 10° N 19:40:32 39° ENE 19:44:42 10° SE
SJ 16-02 3.4 19:37:59 10° NW 19:41:40 28° W 19:45:21 10° SSW
DELTA 2 DEB (DPAF) 4.1 19:41:11 10° NNE 19:45:23 58° ESE 19:49:33 10° S
Resurs 01 Rocket 1.6 19:42:09 10° SSE 19:46:34 87° ENE 19:51:02 10° NNW
CENTAUR R/B 3.9 19:40:38 10° NW 19:47:43 43° NNE 19:56:00 10° E
NOSS 3-1 (A) 3.5 19:47:06 10° S 19:51:48 42° ESE 19:57:23 10° NE
Cosmos 1300 Rocket 4.0 19:49:30 10° SSW 19:53:52 69° WNW 19:58:18 10° N
ERS-1 Rocket 4.0 19:51:40 10° ESE 19:55:59 30° ENE 20:00:19 10° N
Cosmos 1934 Rocket 4.2 19:53:21 10° N 19:59:24 55° ENE 20:05:29 10° SSE
USA 229 DEB 4.5 19:56:22 10° SSE 20:01:07 24° ESE 20:06:12 10° ENE
USA 229 4.5 19:56:30 10° SSE 20:01:13 23° ESE 20:06:16 10° ENE
Cosmos 2151 Rocket 3.9 19:59:15 10° SSE 20:03:27 45° E 20:07:42 10° NNE
USA 234 3.9 19:59:19 10° SE 20:05:39 50° SW 20:12:00 10° WNW
ATLAS CENTAUR R/B 2.7 20:03:25 10° NNW 20:06:35 26° NNE 20:09:52 10° E
USA 281 3.3 20:00:11 10° SSE 20:06:46 89° SW 20:13:25 10° NNW
Cosmos 2227 Rocket 3.0 20:02:16 10° NNW 20:07:34 38° NE 20:12:21 12° ESE
Iridium 2 3.4 20:09:09 10° N 20:12:00 43° E 20:14:16 14° SSE
NOSS 3-1 (C) 3.3 20:06:57 10° SW 20:12:03 85° NW 20:18:21 10° NE
SL-4 R/B 1.6 20:11:36 10° W 20:15:15 74° S 20:17:57 16° ESE
Cosmos 371 Rocket 3.4 20:11:24 10° NNW 20:16:13 79° WSW 20:20:59 10° SSE
Landsat 4 4.0 20:17:01 16° SE 20:19:34 43° ENE 20:22:56 10° N
Cosmos 304 Rocket 3.8 20:15:15 10° NNW 20:20:03 87° WSW 20:24:31 12° SSE
Cosmos 1777 Rocket 4.1 20:15:20 10° NNW 20:20:38 85° WSW 20:25:46 11° SSE
MetOp-B 4.2 20:15:38 10° SSE 20:20:57 68° ENE 20:26:18 10° NNW
Cosmos 1697 Rocket 4.1 20:18:57 14° SE 20:21:18 18° E 20:25:02 10° ENE
COSMOS 2455 3.0 20:17:03 10° NW 20:23:06 68° NE 20:27:59 16° SE
Okean 2 Rocket 3.1 20:21:00 10° S 20:25:28 69° E 20:29:58 10° NNE
ATLAS 3B R/B 2.8 20:18:25 10° SSW 20:25:34 76° SE 20:33:13 10° NE
NOSS 8 (E) 4.3 20:26:47 10° NW 20:29:48 76° NE 20:31:59 21° SE
SPOT 5 3.1 20:26:04 11° SSE 20:31:08 77° ENE 20:36:21 10° NNW
IRS-1A Rocket 4.4 20:28:48 12° SSE 20:34:16 76° ENE 20:40:07 10° NNW
Cosmos 405 Rocket 3.9 20:33:26 20° ESE 20:34:25 23° E 20:37:23 10° NE
CZ-4C R/B 3.0 20:29:23 10° NW 20:36:05 69° NE 20:42:37 17° ESE
Cosmos 2297 Rocket 2.2 20:30:31 10° NNW 20:36:13 87° ENE 20:40:35 18° SSE
BlueWalker 3 2.5 20:34:29 10° SW 20:37:59 35° SSE 20:40:37 16° E
Spot 2 Rocket 3.8 20:36:24 19° SE 20:39:53 51° ENE 20:44:47 10° N
Cosmos 1354 Rocket 4.4 20:35:55 10° NNW 20:41:13 65° WSW 20:45:57 13° S
Cosmos 2369 Rocket 4.4 20:37:06 10° W 20:41:58 28° NW 20:46:50 10° NNE
Terra 2.0 20:40:08 20° SE 20:43:17 56° ENE 20:47:56 10° N
Cosmos 1656 3.7 20:38:35 10° S 20:44:00 56° ESE 20:49:24 10° NE
Cosmos 1455 Rocket 3.8 20:46:46 24° SE 20:48:38 34° E 20:52:36 10° NNE
Cosmos 332 Rocket 3.8 20:43:51 10° NNW 20:48:45 83° ENE 20:51:54 22° SSE
Okean 1 Rocket 3.0 20:44:22 10° S 20:48:49 74° E 20:53:17 10° NNE
ATLAS 5 CENTAUR R/B 2.2 20:45:32 10° WSW 20:48:53 47° NW 20:52:46 10° NE
Sich 1 Rocket 3.8 20:44:46 10° SSW 20:49:10 72° WNW 20:53:40 10° N
Iridium 4 Rocket 3.7 20:44:20 10° S 20:49:53 79° E 20:55:46 10° N
USA 245 3.7 20:46:54 18° SSE 20:50:38 76° ENE 20:54:52 10° NNW
Cosmos 2219 3.8 20:45:38 10° NNW 20:51:04 44° NE 20:54:33 21° ESE
Okean-O 3.7 20:49:15 10° S 20:53:26 43° W 20:57:40 10° NNW
CZ-4C R/B 3.5 20:51:41 10° N 20:55:04 59° WNW 20:58:23 10° SSW
Cosmos 1437 Rocket 2.9 20:54:50 10° N 20:58:43 59° ENE 21:00:22 31° SE
Ariane Rocket 3.0 20:56:31 23° SSE 20:59:41 73° ENE 21:04:44 10° NNW
Cosmos 1763 Rocket 3.8 20:57:45 18° S 21:01:07 44° ESE 21:06:00 10° NE
Cosmos 2263 Rocket 3.0 20:57:36 10° NNW 21:02:53 39° NE 21:06:06 21° ESE
Cosmos 44 3.6 21:00:24 10° SSW 21:05:40 55° SE 21:10:51 10° NE
Okean O Rocket 4.1 21:05:29 10° SW 21:08:31 18° W 21:11:35 10° NW
Cosmos 990 Rocket 3.9 21:03:47 10° NNW 21:09:00 84° WSW 21:11:52 27° SSE
Cosmos 2082 4.4 21:04:02 10° NNW 21:09:25 42° NE 21:12:29 23° ESE
USA 267 3.5 21:04:03 10° ENE 21:10:36 72° NNW 21:17:07 10° W
ARGOS Delta rocket 4.2 21:08:36 27° SE 21:11:32 64° ENE 21:16:58 10° N
Cosmos 2173 Rocket 4.5 21:07:45 10° N 21:13:54 47° ENE 21:17:01 27° SE
NOSS 3-2 (A) 4.3 21:07:12 10° NW 21:14:01 58° NE 21:19:58 20° ESE
Cosmos 1605 Rocket 4.1 21:07:51 10° NNW 21:14:16 78° W 21:19:09 18° S
Aureole 1 Rocket 2.0 21:12:30 10° NNW 21:15:30 82° ENE 21:15:56 62° SE
Meteor 2-3 Rocket 4.5 21:12:00 10° N 21:17:18 38° ENE 21:19:41 27° ESE
Cosmos 540 Rocket 3.7 21:18:45 30° SSE 21:20:50 47° ESE 21:25:44 10° NE
Cosmos 1153 Rocket 4.5 21:15:59 10° N 21:22:21 79° E 21:25:55 28° SSE
Cosmos 1606 4.5 21:23:40 18° ENE 21:23:40 18° ENE 21:25:26 10° NE
Resurs 01 Rocket 4.4 21:21:26 10° WSW 21:23:39 14° W 21:25:53 10° NW
Cosmos 2058 2.8 21:21:24 10° N 21:25:26 67° ENE 21:26:27 46° SE
MOS 1 Rocket 3.0 21:25:21 40° SE 21:26:48 72° ENE 21:31:13 10° N
Cosmos 1626 Rocket 4.0 21:23:45 10° N 21:28:02 47° ENE 21:29:06 39° ESE
Cosmos 372 Rocket 4.1 21:24:53 10° NNW 21:30:07 64° ENE 21:32:09 36° SE
Cosmos 468 Rocket 4.0 21:31:31 33° S 21:33:39 56° ESE 21:38:46 10° NNE
ERS-1 Rocket 3.7 21:31:22 21° SSW 21:34:33 49° W 21:39:26 10° NNW
Cosmos 1802 Rocket 4.4 21:30:20 10° N 21:36:26 50° ENE 21:38:59 33° SE
SPOT 3 Rocket 3.8 21:35:46 28° S 21:38:31 64° WSW 21:43:41 10° NNW
CENTAUR R/B 3.2 21:31:28 10° NW 21:39:28 83° NE 21:44:47 29° SE
Landsat 5 3.4 21:38:05 10° NNE 21:42:21 70° ESE 21:43:13 52° SSE
NOSS 3-1 (A) 4.0 21:37:18 10° WSW 21:42:29 54° NNW 21:48:52 10° NE
Cosmos 1869 4.1 21:43:56 34° ENE 21:43:56 34° ENE 21:46:58 10° NNE
Cosmos 841 Rocket 4.1 21:43:35 35° ESE 21:43:43 35° ESE 21:48:21 10° NE
Cosmos 2016 Rocket 4.4 21:37:49 10° N 21:43:43 47° ENE 21:45:55 34° ESE
ATLAS CENTAUR R/B 1.2 21:40:56 10° NW 21:44:39 65° SW 21:45:04 59° SSW
Cosmos 1844 Rocket 4.3 21:42:27 10° NNW 21:47:03 25° NE 21:50:31 15° E
Intercosmos 25 3.3 21:42:35 10° N 21:47:37 76° ENE 21:48:13 61° SE
Cosmos 1544 Rocket 3.6 21:49:26 52° ESE 21:49:45 53° E 21:53:59 10° NNE
USA 229 DEB 3.5 21:44:52 10° SW 21:51:06 89° SE 21:58:05 10° NE
USA 229 3.5 21:44:57 10° SW 21:51:12 89° SE 21:58:10 10° NE
Cosmos 2100 Rocket 4.0 21:45:08 10° N 21:51:33 83° E 21:54:16 37° SSE
Cosmos 2227 Rocket 2.7 21:46:19 10° NW 21:51:49 52° WSW 21:54:10 32° S
Cosmos 1727 Rocket 3.9 21:49:07 28° S 21:52:40 85° E 21:58:57 10° N
SL-4 R/B 3.1 21:50:36 10° W 21:52:47 25° WSW 21:52:47 25° WSW
H-2A R/B 3.4 21:54:16 31° ENE 21:54:21 31° ENE 21:57:43 10° N
Cosmos 292 Rocket 3.7 21:50:57 10° NNW 21:55:43 76° WSW 21:56:52 51° S
Cosmos 1980 Rocket 2.5 21:55:14 41° SE 21:55:47 43° ESE 22:01:06 10° NE
Cosmos 1937 Rocket 3.5 21:56:58 10° NNW 22:02:19 84° WSW 22:03:46 49° SSE
Okean 1-7 Rocket 3.6 21:59:00 10° N 22:03:33 68° ENE 22:04:09 60° ESE
Cosmos 1000 Rocket 4.4 22:01:36 39° S 22:04:00 75° E 22:10:10 10° NNE
Cosmos 1697 Rocket 2.6 22:00:32 21° SSW 22:04:29 89° ESE 22:10:12 10° NNE
Cosmos 2360 4.4 22:00:21 10° SW 22:06:02 72° WNW 22:11:46 10° NNE
Cosmos 2123 Rocket 4.2 22:05:45 42° SE 22:07:35 57° E 22:13:47 10° NNE
COSMOS 2455 4.1 22:03:28 10° NW 22:08:39 31° WSW 22:11:08 23° SSW
MetOp-A 3.9 22:08:40 43° WSW 22:09:07 45° W 22:12:47 10° NNW
Cosmos 405 Rocket 4.1 22:07:46 23° WSW 22:09:29 35° WNW 22:12:55 10° N
CZ-2C R/B 4.2 22:06:15 10° NNE 22:10:47 45° E 22:10:47 45° E
Cosmos 1602 Rocket 3.4 22:06:36 10° N 22:10:58 74° ENE 22:11:18 70° ESE
Cosmos 1758 Rocket 3.4 22:07:10 10° N 22:11:38 83° E 22:12:06 71° SSE
Cosmos 2228 3.0 22:14:51 64° E 22:14:51 64° E 22:18:51 10° NNE
Cosmos 1898 Rocket 4.0 22:09:51 10° NNW 22:14:56 51° WSW 22:16:18 40° SSW
BlueWalker 3 2.4 22:12:11 10° WSW 22:15:07 51° W 22:15:07 51° W
ATLAS 3B R/B 3.9 22:09:50 10° W 22:16:55 47° NNW 22:24:23 10° NE
ARIANE 5 R/B 2.6 22:17:17 66° ESE 22:17:42 71° ENE 22:22:12 10° N
Cosmos 2297 Rocket 4.2 22:15:39 10° WNW 22:19:31 19° W 22:22:24 13° SW
Terra 3.7 22:18:50 16° SW 22:21:14 23° W 22:24:58 10° NW
CZ-4C R/B 3.6 22:17:53 10° NW 22:24:37 45° WSW 22:27:43 32° SSW
Cosmos 2369 3.7 22:27:49 56° SE 22:28:20 58° ESE 22:33:53 10° NE
Cosmos 1606 Rocket 4.5 22:30:33 36° ENE 22:30:33 36° ENE 22:33:52 10° NNE
Cosmos 1825 Rocket 3.8 22:25:44 10° N 22:30:02 57° ENE 22:30:02 57° ENE
Cosmos 1666 3.9 22:26:56 10° N 22:29:23 30° NE 22:29:23 30° NE
Meteor 2-1 Rocket 4.3 22:28:09 39° SSW 22:30:15 71° WNW 22:35:47 10° N
NOSS 3-2 (C) 4.1 22:23:14 10° NW 22:30:18 73° NE 22:34:32 32° ESE
SL-08 R/B 4.4 22:24:25 10° N 22:30:49 83° ENE 22:32:34 51° SSE
Lacrosse 4 Rocket 3.6 22:33:41 15° ENE 22:33:41 15° ENE 22:34:30 10° NE
Meteor 2-8 Rocket 4.4 22:25:50 10° N 22:32:02 90° W 22:33:42 52° S
H-2A R/B 4.4 22:30:01 10° ENE 22:30:48 12° ENE 22:30:48 12° ENE
Cosmos 1725 Rocket 3.9 22:27:12 10° NNW 22:33:25 85° W 22:35:10 50° S
ATLAS 5 CENTAUR R/B 4.0 22:30:53 10° WNW 22:33:46 20° N 22:37:01 10° NE
Cosmos 2233 Rocket 4.0 22:27:37 10° N 22:33:48 71° ENE 22:35:19 51° SE
Cosmos 1459 Rocket 4.3 22:28:30 10° NNW 22:34:25 57° W 22:36:35 38° SSW
Cosmos 2219 3.9 22:29:56 10° NW 22:35:14 42° WSW 22:36:27 37° SW
ALOS 2 3.4 22:35:59 38° ENE 22:36:08 38° ENE 22:40:13 10° N
Cosmos 2061 Rocket 4.0 22:33:48 10° N 22:40:18 85° E 22:42:00 53° SSE
Cosmos 1862 3.5 22:37:13 10° N 22:40:37 66° N 22:40:37 66° N
Cosmos 2263 Rocket 2.5 22:41:34 10° NW 22:46:58 49° WSW 22:47:47 46° SW
Cosmos 1271 Rocket 3.5 22:46:12 10° N 22:49:07 45° NNE 22:49:07 45° NNE
Cosmos 2360 Rocket 4.1 22:51:06 15° E 22:51:06 15° E 22:53:24 10° ENE
Cosmos 1500 4.1 22:47:41 10° N 22:50:09 42° N 22:50:09 42° N
USA 267 3.7 22:46:53 10° E 22:53:18 60° N 22:59:44 10° WNW
Cosmos 2082 4.2 22:48:13 10° NW 22:53:35 45° WSW 22:54:20 43° SW
Cosmos 1606 3.8 22:57:45 38° WNW 22:57:45 38° WNW 23:00:50 10° N
Lacrosse 5 4.2 23:05:57 12° E 23:05:57 12° E 23:06:22 10° ENE
Cosmos 2333 Rocket 4.0 23:03:47 16° E 23:03:47 16° E 23:06:25 10° ENE
Cosmos 2322 Rocket 3.6 23:03:59 24° E 23:03:59 24° E 23:07:36 10° NE
PSLV R/B 4.2 23:00:15 10° N 23:03:54 64° NNW 23:03:54 64° NNW
Cosmos 2219 Rocket 4.5 23:05:42 10° E 23:05:42 10° E 23:05:47 10° E
NOSS 3-2 (A) 4.2 22:58:00 10° NW 23:05:09 57° SW 23:07:20 45° S
Spot 4 3.7 23:09:20 81° WSW 23:09:22 81° WSW 23:14:12 10° NNW
Cosmos 1726 Rocket 3.9 23:10:52 58° NE 23:10:52 58° NE 23:14:30 10° NNE
Meteor 2-19 Rocket 4.3 23:16:06 62° SSW 23:17:15 87° W 23:23:23 10° N
Cosmos 1238 Rocket 4.3 23:19:41 28° NE 23:19:41 28° NE 23:21:44 10° NNE
Cosmos 1953 Rocket 3.8 23:15:19 10° NNW 23:19:07 65° NW 23:19:07 65° NW
Cosmos 1844 3.8 23:16:44 10° NNW 23:22:31 73° ENE 23:23:28 61° ESE
SL-16 R/B 2.5 23:22:57 49° E 23:22:57 49° E 23:28:06 10° NE
Cosmos 841 Rocket 4.4 23:23:34 31° WSW 23:25:29 43° NW 23:30:23 10° NNE
H-2A R/B 4.0 23:30:18 25° WNW 23:30:18 25° WNW 23:32:40 10° NW
CENTAUR R/B 4.0 23:22:27 10° NW 23:29:55 38° WSW 23:31:56 34° SW
USA 238 DEB 3.8 23:22:53 10° NW 23:30:09 87° NE 23:32:58 44° SE
USA 238 3.8 23:22:59 10° NW 23:30:14 86° NE 23:33:05 43° SE
Cosmos 1125 Rocket 3.3 23:26:23 10° NNW 23:31:39 86° ENE 23:31:49 84° ESE
Cosmos 1844 Rocket 2.5 23:26:03 10° NNW 23:31:43 90° SW 23:32:08 77° SSE
Cosmos 1812 4.2 23:37:39 30° NNE 23:37:39 30° NNE 23:39:42 10° NNE
Cosmos 2084 4.5 23:38:04 37° NNE 23:38:04 37° NNE 23:40:31 10° NE
PSLV R/B 4.3 23:35:05 10° NNE 23:39:04 50° ENE 23:39:04 50° ENE
Cosmos 1980 Rocket 3.1 23:36:55 25° WSW 23:39:49 44° NW 23:45:14 10° NNE
Cosmos 1072 Rocket 4.4 23:34:58 10° N 23:41:25 80° E 23:42:32 62° SSE
Meteor 2-14 Rocket 4.4 23:41:04 60° SE 23:41:47 65° E 23:47:54 10° NNE
Cosmos 2346 Rocket 4.3 23:42:06 67° S 23:43:01 86° E 23:49:19 10° N
Cosmos 2151 3.8 23:39:38 10° NNW 23:42:57 43° WNW 23:42:57 43° WNW
Cosmos 2278 3.5 23:44:40 77° SSW 23:45:08 89° SE 23:50:52 10° NNE
Timation 2 Rocket 4.0 23:40:16 10° NNW 23:46:58 85° ENE 23:48:19 59° SE
